Miscellaneous Local Product
Issued by NWS North Platte, NE

Home | Current Version | Previous Version | Graphics & Text | Print | Product List | Glossary On
Versions: 1 2 3 4 5 6 7 8 9 10 11 12 13 14 15 16 17 18 19 20 21 22 23 24 25 26 27 28 29 30 31 32 33 34 35 36 37 38 39 40 41 42 43 44 45 46 47 48 49 50
000
AXUS43 KLBF 221110
MISLBF


WESTERN AND NORTH CENTRAL NEBRASKA HOURLY WEATHER ROUNDUP
NATIONAL WEATHER SERVICE NORTH PLATTE NE
600 AM CDT SAT APR 22 2017

NOTE: "FAIR" INDICATES FEW OR NO CLOUDS BELOW 12,000 FEET WITH NO
SIGNIFICANT WEATHER AND/OR OBSTRUCTIONS TO VISIBILITY.

NOTE: STATIONS NOT REPORTING VARIABLES SUCH AS SKY/WEATHER OR
PRESSURE ARE PROVIDED BY RAWS AND APRS NETWORKS AND ARE NOT UNDER
NATIONAL WEATHER SERVICE QUALITY CONTROL.

...OBSERVATIONS IN AND NEAR THE EASTERN PANHANDLE OF NEBRASKA...

CITY           SKY/WX    TMP DP  RH WIND       PRES   REMARKS
PINE RIDGE     CLEAR     37  32  82 VRB5      30.26S WCI  33
CHADRON        CLEAR     39  32  76 CALM      30.24F
ALLIANCE       CLEAR     29  28  96 SE8       30.25R WCI  21
SIDNEY         CLOUDY    38  36  92 E7        30.26S WCI  33
CRESCENT LAKE    N/A     35  33  91 CALM        N/A
$$

...OBSERVATIONS IN NORTHERN NEBRASKA AND FAR SOUTHERN SOUTH DAKOTA...

CITY           SKY/WX    TMP DP  RH WIND       PRES   REMARKS
WINNER         FAIR      40  34  79 CALM      30.27R
VALENTINE      CLEAR     29  26  89 W6        30.28R WCI  23
THEDFORD       CLEAR     30  29  96 W5        30.28R WCI  25
AINSWORTH      MOCLDY    36  34  92 CALM      30.27S
O`NEILL        CLOUDY    43  38  82 NW3       30.26S
ORD            CLOUDY    37  33  85 CALM      30.25R
BROKEN BOW     MOCLDY    37  31  78 N5        30.25S WCI  33
VALENTINE NWR    N/A     36  32  87 CALM        N/A
HALSEY           N/A     33  30  90 CALM        N/A
BUTTE            N/A     43  36  77 CALM        N/A
CHAMBERS         N/A     43  38  84 CALM        N/A
EWING            N/A     42  38  86 CALM        N/A
$$

...OBSERVATIONS IN SOUTHWEST NEBRASKA AND FAR NORTHEAST COLORADO...

CITY           SKY/WX    TMP DP  RH WIND       PRES   REMARKS
HOLYOKE        FAIR      37  36  93 CALM      30.27S
IMPERIAL       CLOUDY    37  34  89 CALM      30.27R
OGALLALA       CLOUDY    32  29  90 CALM      30.27S
NORTH PLATTE   PTCLDY    29  28  96 NW3       30.27S
MCCOOK         CLOUDY    37  34  89 NW6       30.25R WCI  32
LEXINGTON      CLEAR     32  30  93 W7        30.25S WCI  26
STAPLETON        N/A     32  30  92 CALM        N/A
GOTHENBURG       N/A     35  31  87 W5          N/A  WCI  31
CALLAWAY         N/A     31  28  88 N3          N/A
$$

...OBSERVATIONS IN CENTRAL LINCOLN COUNTY AREA...

CITY           SKY/WX    TMP DP  RH WIND       PRES   REMARKS
N.P. AIRPORT   PTCLDY    29  28  96 NW3       30.27S
N.P. DOWNTOWN    N/A     33  30  90 CALM        N/A
N.P. SOUTHEAST   N/A     34  32  92 CALM        N/A
N.P. HILLCREST   N/A     33  30  90 N3          N/A
$$

...SOME OBSERVATIONS FROM AROUND THE REGION...

CITY           SKY/WX    TMP DP  RH WIND       PRES   REMARKS
DENVER         LGT RAIN  36  33  89 SE9       30.24R WCI  29
LIMON          LGT RAIN  36  35  96 SE5       30.25R WCI  32
ASPEN          CLEAR     26  20  77 SW3       30.20S
LARAMIE        CLOUDY    28  27  96 S6        30.20R WCI  22
CASPER         CLOUDY    36  35  96 W12       30.21R WCI  28
CHEYENNE       CLOUDY    33  32  96 SW7       30.23R FOG     WCI  27
SCOTTSBLUFF    CLEAR     35  32  88 E6        30.25S WCI  30
GRAND ISLAND   PTCLDY    39  37  92 N7        30.24S WCI  34
OMAHA          CLOUDY    40  36  86 N10       30.22R WCI  33
SIOUX FALLS    PTCLDY    35  34  96 CALM      30.26S
PIERRE         CLOUDY    39  33  79 W3        30.25R
RAPID CITY     CLEAR     35  31  85 SE6       30.23F WCI  30
BISMARCK       CLEAR     34  33  96 CALM      30.23S
KANSAS CITY    CLOUDY    50  37  61 NE12      30.09R
HILL CITY      CLOUDY    43  40  89 N12       30.23S
WICHITA        MOCLDY    47  42  83 N13       30.10R
DODGE CITY     CLOUDY    40  38  93 NW8       30.19R WCI  34
OKLAHOMA CITY  CLOUDY    46  42  86 N21       30.03S
DALLAS         CLOUDY    57  50  77 N17G24    29.96R
AMARILLO       CLOUDY    43  36  76 N18       30.18R
$$




USA.gov is the U.S. government's official web portal to all federal, state and local government web resources and services.